Starlink 3771

operational
NORAD ID: 52293 Int'l Des: 2022-041 Owner: SPXS Country: US Constellation: starlink
LEOCIRCULAR

Starlink 3771について

説明を読み込み中...

リアルタイム位置

3D地球を読み込み中...

次回通過

高度履歴

Altitude vs Time

uPlot chart will show altitude changes over time

軌道要素

1 52293U 22041AJ 26062.20388065 -.00001980 00000-0 -10636-3 0 9997
2 52293 53.2182 128.2505 0001097 107.4455 252.6657 15.08845542213528
Epoch: Mar 3, 2026 • Age: 18 hours

現在のステータス

高度 545.1 km
速度 7.60 km/s
衛星直下点 51.27°N, 165.28°E
打ち上げ日 Apr 21, 2022
運用期間 3.8 years
タイプ internet

技術仕様

分類 Payload
質量 297.00 kg
乾燥質量 275.00 kg
総質量 297.00 kg
長さ 0.20 m
直径 2.80 m
スパン 9.00 m
形状 Box + pan
製造者 SPXS
バスタイプ Starlink
フェーズステータス In Orbit
所有者/国 SPXS/US

大規模コンステレーション

Loading constellations...